• In Czech Republic
  • List of Countries
  • For 7 days
  • Water Temperature
  • Satellite Maps
  • Weather Map
  • Weather Widgets
  • user-avatar
    Login

    Hourly Weather Bafoussam

    Today, 16 December, Saturday

    Time Temperature Precipitation Wind Pressure Humidity
    00:00 +19°C° 0 mm 1 mps 643 mmHg 72%
    01:00 +19°C° 0 mm 1 mps 643 mmHg 74%
    02:00 +18°C° 0 mm 1 mps 643 mmHg 75%
    03:00 +18°C° 0 mm 1 mps 643 mmHg 76%
    04:00 +18°C° 0 mm 1 mps 643 mmHg 77%
    05:00 +18°C° 0 mm 1 mps 643 mmHg 77%
    06:00 +18°C° 0 mm 1 mps 643 mmHg 76%
    07:00 +18°C° 0 mm 1 mps 643 mmHg 76%
    08:00 +21°C° 0 mm 1 mps 645 mmHg 61%
    09:00 +25°C° 0 mm 1 mps 646 mmHg 47%
    10:00 +28°C° 0 mm 1 mps 647 mmHg 33%
    11:00 +29°C° 0 mm 2 mps 647 mmHg 30%
    12:00 +30°C° 0 mm 2 mps 646 mmHg 27%
    13:00 +31°C° 0 mm 2 mps 646 mmHg 24%
    14:00 +31°C° 0 mm 2 mps 646 mmHg 24%
    15:00 +30°C° 0 mm 2 mps 645 mmHg 24%
    16:00 +30°C° 0 mm 2 mps 644 mmHg 24%
    17:00 +28°C° 0 mm 1 mps 644 mmHg 31%
    18:00 +25°C° 0 mm 1 mps 644 mmHg 37%
    19:00 +21°C° 0 mm 0 mps 643 mmHg 44%
    20:00 +22°C° 0 mm 1 mps 644 mmHg 49%
    21:00 +21°C° 0 mm 1 mps 644 mmHg 55%
    22:00 +20°C° 0 mm 1 mps 644 mmHg 61%
    23:00 +20°C° 0 mm 1 mps 644 mmHg 63%

    Tomorrow, 17 December, Sunday

    Time Temperature Precipitation Wind Pressure Humidity
    00:00 +20°C° 0 mm 1 mps 644 mmHg 65%
    01:00 +19°C° 0 mm 1 mps 644 mmHg 66%
    02:00 +19°C° 0 mm 1 mps 644 mmHg 62%
    03:00 +19°C° 0 mm 1 mps 643 mmHg 58%
    04:00 +18°C° 0 mm 1 mps 643 mmHg 53%
    05:00 +18°C° 0 mm 1 mps 643 mmHg 51%
    06:00 +18°C° 0 mm 1 mps 643 mmHg 48%
    07:00 +18°C° 0 mm 1 mps 644 mmHg 45%
    08:00 +22°C° 0 mm 1 mps 645 mmHg 39%
    09:00 +25°C° 0 mm 1 mps 646 mmHg 32%
    10:00 +28°C° 0 mm 1 mps 647 mmHg 26%
    11:00 +29°C° 0 mm 1 mps 647 mmHg 24%
    12:00 +31°C° 0 mm 1 mps 647 mmHg 22%
    13:00 +32°C° 0 mm 1 mps 647 mmHg 19%
    14:00 +32°C° 0 mm 1 mps 646 mmHg 20%
    15:00 +31°C° 0 mm 1 mps 645 mmHg 21%
    16:00 +31°C° 0 mm 1 mps 644 mmHg 22%
    17:00 +28°C° 0 mm 1 mps 644 mmHg 28%
    18:00 +26°C° 0 mm 1 mps 644 mmHg 35%
    19:00 +23°C° 0 mm 1 mps 644 mmHg 42%
    20:00 +22°C° 0 mm 1 mps 644 mmHg 49%
    21:00 +21°C° 0 mm 1 mps 644 mmHg 56%
    22:00 +20°C° 0 mm 1 mps 645 mmHg 63%
    23:00 +20°C° 0 mm 1 mps 644 mmHg 64%

    Day after tomorrow, 18 December, Monday

    Time Temperature Precipitation Wind Pressure Humidity
    00:00 +19°C° 0 mm 1 mps 644 mmHg 65%
    01:00 +19°C° 0 mm 1 mps 644 mmHg 66%
    02:00 +19°C° 0 mm 1 mps 644 mmHg 63%
    03:00 +19°C° 0 mm 1 mps 643 mmHg 59%
    04:00 +18°C° 0 mm 1 mps 643 mmHg 56%
    05:00 +18°C° 0 mm 1 mps 643 mmHg 53%
    06:00 +18°C° 0 mm 1 mps 644 mmHg 50%
    07:00 +18°C° 0 mm 1 mps 644 mmHg 47%
    08:00 +22°C° 0 mm 1 mps 645 mmHg 40%
    09:00 +25°C° 0 mm 1 mps 647 mmHg 33%
    10:00 +29°C° 0 mm 1 mps 648 mmHg 26%
    11:00 +30°C° 0 mm 1 mps 647 mmHg 24%
    12:00 +31°C° 0 mm 1 mps 647 mmHg 22%
    13:00 +32°C° 0 mm 1 mps 647 mmHg 20%
    14:00 +32°C° 0 mm 1 mps 646 mmHg 21%
    15:00 +31°C° 0 mm 1 mps 645 mmHg 22%
    16:00 +31°C° 0 mm 1 mps 644 mmHg 23%
    17:00 +28°C° 0 mm 1 mps 644 mmHg 31%
    18:00 +26°C° 0 mm 1 mps 643 mmHg 40%
    19:00 +23°C° 0 mm 1 mps 643 mmHg 48%
    20:00 +22°C° 0 mm 1 mps 643 mmHg 55%
    21:00 +21°C° 0 mm 1 mps 644 mmHg 63%
    22:00 +20°C° 0 mm 1 mps 644 mmHg 71%
    23:00 +20°C° 0 mm 1 mps 644 mmHg 74%

    19 December, Tuesday

    Time Temperature Precipitation Wind Pressure Humidity
    00:00 +19°C° 0 mm 1 mps 643 mmHg 78%
    01:00 +19°C° 0 mm 1 mps 643 mmHg 81%
    02:00 +19°C° 0 mm 1 mps 643 mmHg 82%
    03:00 +18°C° 0 mm 1 mps 643 mmHg 83%
    04:00 +18°C° 0 mm 1 mps 642 mmHg 84%
    05:00 +18°C° 0 mm 1 mps 643 mmHg 84%
    06:00 +18°C° 0 mm 1 mps 643 mmHg 83%
    07:00 +18°C° 0 mm 1 mps 643 mmHg 83%
    08:00 +22°C° 0 mm 1 mps 644 mmHg 68%
    09:00 +25°C° 0 mm 1 mps 646 mmHg 53%
    10:00 +28°C° 0 mm 1 mps 647 mmHg 38%
    11:00 +29°C° 0 mm 1 mps 646 mmHg 33%
    12:00 +31°C° 0 mm 2 mps 646 mmHg 29%
    13:00 +32°C° 0 mm 2 mps 646 mmHg 24%
    14:00 +31°C° 0 mm 2 mps 645 mmHg 25%
    15:00 +31°C° 0 mm 2 mps 644 mmHg 26%
    16:00 +30°C° 0 mm 2 mps 644 mmHg 27%
    17:00 +28°C° 0.1 mm 2 mps 643 mmHg 37%
    18:00 +25°C° 0.1 mm 2 mps 643 mmHg 46%
    19:00 +23°C° 0.1 mm 2 mps 643 mmHg 56%
    20:00 +22°C° 0 mm 1 mps 643 mmHg 63%
    21:00 +21°C° 0 mm 1 mps 643 mmHg 71%
    22:00 +20°C° 0 mm 1 mps 644 mmHg 79%
    23:00 +20°C° 0 mm 1 mps 643 mmHg 80%

    20 December, Wednesday

    Time Temperature Precipitation Wind Pressure Humidity
    00:00 +19°C° 0 mm 1 mps 643 mmHg 82%
    01:00 +19°C° 0 mm 1 mps 643 mmHg 83%
    02:00 +19°C° 0 mm 1 mps 643 mmHg 82%
    03:00 +19°C° 0 mm 1 mps 642 mmHg 82%
    04:00 +18°C° 0 mm 1 mps 642 mmHg 81%
    05:00 +19°C° 0 mm 1 mps 643 mmHg 81%
    06:00 +19°C° 0 mm 1 mps 643 mmHg 81%
    07:00 +19°C° 0 mm 1 mps 643 mmHg 81%
    08:00 +22°C° 0 mm 1 mps 645 mmHg 68%
    09:00 +25°C° 0 mm 1 mps 646 mmHg 54%
    10:00 +28°C° 0 mm 2 mps 647 mmHg 41%
    11:00 +29°C° 0 mm 2 mps 646 mmHg 35%
    12:00 +30°C° 0 mm 2 mps 646 mmHg 30%
    13:00 +31°C° 0 mm 2 mps 646 mmHg 25%
    14:00 +31°C° 0 mm 2 mps 645 mmHg 25%
    15:00 +31°C° 0 mm 2 mps 645 mmHg 25%
    16:00 +31°C° 0 mm 2 mps 644 mmHg 25%
    17:00 +28°C° 0 mm 2 mps 644 mmHg 34%
    18:00 +26°C° 0 mm 2 mps 643 mmHg 44%
    19:00 +23°C° 0 mm 1 mps 643 mmHg 53%
    20:00 +22°C° 0 mm 1 mps 643 mmHg 61%
    21:00 +21°C° 0 mm 1 mps 644 mmHg 68%
    22:00 +20°C° 0 mm 1 mps 644 mmHg 76%
    23:00 +20°C° 0 mm 1 mps 644 mmHg 77%

    21 December, Thursday

    Time Temperature Precipitation Wind Pressure Humidity
    00:00 +20°C° 0 mm 1 mps 643 mmHg 79%
    01:00 +19°C° 0 mm 1 mps 643 mmHg 81%
    02:00 +19°C° 0 mm 1 mps 643 mmHg 80%
    03:00 +19°C° 0 mm 1 mps 643 mmHg 80%
    04:00 +18°C° 0 mm 1 mps 643 mmHg 79%
    05:00 +18°C° 0 mm 1 mps 643 mmHg 77%
    06:00 +18°C° 0 mm 1 mps 643 mmHg 75%
    07:00 +18°C° 0 mm 1 mps 644 mmHg 73%
    08:00 +21°C° 0 mm 1 mps 645 mmHg 61%
    09:00 +24°C° 0 mm 1 mps 646 mmHg 49%
    10:00 +27°C° 0 mm 1 mps 647 mmHg 36%
    11:00 +28°C° 0 mm 2 mps 647 mmHg 33%
    12:00 +29°C° 0 mm 2 mps 646 mmHg 29%
    13:00 +30°C° 0 mm 3 mps 646 mmHg 26%
    14:00 +30°C° 0 mm 3 mps 645 mmHg 26%
    15:00 +30°C° 0 mm 3 mps 645 mmHg 27%
    16:00 +30°C° 0 mm 3 mps 644 mmHg 27%
    17:00 +27°C° 0 mm 2 mps 644 mmHg 35%
    18:00 +25°C° 0 mm 1 mps 644 mmHg 43%
    19:00 +23°C° 0 mm 1 mps 643 mmHg 51%
    20:00 +22°C° 0 mm 1 mps 644 mmHg 57%
    21:00 +21°C° 0 mm 1 mps 644 mmHg 64%
    22:00 +20°C° 0 mm 1 mps 644 mmHg 70%
    23:00 +20°C° 0 mm 1 mps 644 mmHg 72%
    Show more